Tracking 33199 objects as of 16-Feb-2026
HD Live streaming from Space Station
objects crossing your sky now

ATLAS 5 CENTAUR DEB

Track ATLAS 5 CENTAUR DEB now!


NORAD ID: 46668
Int'l Code: 2018-079CW
Perigee: 8,620.9 km
Apogee: 34,959.2 km
Inclination: 13.1 °
Period: 783.8 minutes
Semi major axis: 28161 km
RCS: Unknown
Launch date: October 17, 2018
Source: United States (US)
Launch site: AIR FORCE EASTERN TEST RANGE (AFETR)

Note: This is SATELLITE DEBRIS
Your satellite tracking list
Your tracking list is empty




NASA's NSSDC Master Catalog

Two Line Element Set (TLE):
1 46668U 18079CW  26045.71465994 -.00000182  00000-0  00000-0 0  9999
2 46668  13.1132  44.0915 4676366 300.3654  21.4412  1.83708855 35923
Source of the keplerian elements: AFSPC